This demonstration page uses our WeatherBlox Daily Observations layout. Learn more.

Left ArrowRight Arrow

Hourly Observations for July 18, 2022

Temp ( °F °C ) Dew Point ( °F °C ) Humidity (%) Winds ( mph kmh ) Pressure ( in mb ) Visibility ( mi km ) Precip ( " mm )
12:15 am 00:15 Clear 75 24 73 23 94 94 S 3 6 29.99 1015 10 16 0.00 0.00
12:35 am 00:35 Clear 75 24 73 23 94 94 Calm 29.99 1015 10 16 0.00 0.00
12:55 am 00:55 Clear 73 23 73 23 100 100 Calm 29.99 1015 10 16 0.00 0.00
1:15 am 01:15 Clear 75 24 73 23 94 94 SSE 3 6 29.99 1015 10 16 0.00 0.00
1:35 am 01:35 Clear 73 23 73 23 100 100 SSE 3 6 29.99 1015 10 16 0.00 0.00
1:55 am 01:55 Clear 73 23 73 23 100 100 SSE 5 7 29.99 1015 10 16 0.00 0.00
2:15 am 02:15 Clear 73 23 73 23 100 100 S 5 7 29.97 1015 10 16 0.00 0.00
2:35 am 02:35 Clear 73 23 73 23 100 100 SSE 5 7 29.96 1014 10 16 0.00 0.00
2:55 am 02:55 Clear 73 23 73 23 100 100 SSE 7 11 29.96 1014 10 16 0.00 0.00
3:15 am 03:15 Clear 73 23 72 22 94 94 SSE 7 11 29.96 1014 10 16 0.00 0.00
3:35 am 03:35 Clear 73 23 72 22 94 94 SSE 5 7 29.95 1014 10 16 0.00 0.00
3:55 am 03:55 Clear 73 23 72 22 94 94 Calm 29.94 1014 10 16 0.00 0.00
4:15 am 04:15 Clear 73 23 72 22 94 94 Calm 29.95 1014 10 16 0.00 0.00
4:35 am 04:35 Clear 72 22 72 22 100 100 Calm 29.95 1014 10 16 0.00 0.00
4:55 am 04:55 Clear 72 22 72 22 100 100 SSE 3 6 29.95 1014 10 16 0.00 0.00
5:15 am 05:15 Clear 72 22 72 22 100 100 Calm 29.94 1014 10 16 0.00 0.00
5:35 am 05:35 Partly Cloudy 72 22 72 22 100 100 Calm 29.95 1014 10 16 0.00 0.00
5:55 am 05:55 Partly Cloudy 72 22 72 22 100 100 Calm 29.95 1014 10 16 0.00 0.00
6:15 am 06:15 Mostly Cloudy 72 22 72 22 100 100 Calm 29.95 1014 10 16 0.00 0.00
6:35 am 06:35 Mostly Cloudy 72 22 72 22 100 100 S 3 6 29.95 1014 10 16 0.00 0.00
6:55 am 06:55 Mostly Cloudy 72 22 72 22 100 100 S 3 6 29.95 1014 10 16 0.00 0.00
7:15 am 07:15 Cloudy 72 22 72 22 100 100 S 6 9 29.95 1014 10 16 0.00 0.00
7:35 am 07:35 Cloudy 72 22 72 22 100 100 S 5 7 29.95 1014 7 11 0.00 0.00
7:55 am 07:55 Cloudy 73 23 73 23 100 100 S 7 11 29.96 1014 7 11 0.00 0.00
8:15 am 08:15 Cloudy 73 23 73 23 100 100 S 6 9 29.95 1014 10 16 0.00 0.00
8:35 am 08:35 Cloudy 73 23 73 23 100 100 SSW 6 9 29.94 1014 10 16 0.00 0.00
8:55 am 08:55 Cloudy 75 24 73 23 94 94 S 6 9 29.94 1014 10 16 0.00 0.00
9:15 am 09:15 Cloudy 77 25 73 23 89 89 S 8 13 29.93 1014 10 16 0.00 0.00
9:35 am 09:35 Cloudy 77 25 75 24 94 94 SSW 6 9 29.93 1014 10 16 0.00 0.00
9:55 am 09:55 Mostly Cloudy 79 26 75 24 89 89 WSW 6 9 29.93 1014 10 16 0.00 0.00
10:15 am 10:15 Mostly Cloudy 81 27 75 24 84 84 SW 5 7 29.92 1013 10 16 0.00 0.00
10:35 am 10:35 Cloudy 82 28 77 25 84 84 S 8 13 29.91 1013 10 16 0.00 0.00
10:55 am 10:55 Partly Cloudy 82 28 77 25 84 84 S 9 15 29.91 1013 10 16 0.00 0.00
11:15 am 11:15 Partly Cloudy 82 28 75 24 79 79 SW 6 9 29.91 1013 10 16 0.00 0.00
11:35 am 11:35 Mostly Cloudy 82 28 77 25 84 84 SSW 6 9 29.91 1013 10 16 0.00 0.00
11:55 am 11:55 Mostly Cloudy 86 30 77 25 75 75 SW 7 11 29.91 1013 10 16 0.00 0.00
12:15 pm 12:15 Mostly Cloudy 86 30 77 25 75 75 SSW 9 15 29.90 1012 10 16 0.00 0.00
12:35 pm 12:35 Mostly Cloudy 88 31 77 25 70 70 S 9 15 29.89 1012 10 16 0.00 0.00
12:55 pm 12:55 Partly Cloudy 88 31 77 25 70 70 SSW 9 15 29.88 1012 10 16 0.00 0.00
1:15 pm 13:15 Partly Cloudy 88 31 77 25 70 70 S 12 19 29.88 1012 10 16 0.00 0.00
1:35 pm 13:35 Mostly Cloudy 88 31 77 25 70 70 SW 10 17 29.87 1011 10 16 0.00 0.00
1:55 pm 13:55 Mostly Cloudy 90 32 77 25 67 67 SSW 7 11 29.86 1011 10 16 0.00 0.00
2:15 pm 14:15 Partly Cloudy 90 32 77 25 67 67 SSW 10 17 29.84 1010 10 16 0.00 0.00
2:35 pm 14:35 Mostly Cloudy 90 32 77 25 67 67 S 12 19 29.83 1010 10 16 0.00 0.00
2:55 pm 14:55 Partly Cloudy 91 33 77 25 63 63 S 12 19 29.81 1010 10 16 0.00 0.00
3:15 pm 15:15 Mostly Cloudy 91 33 75 24 59 59 S 12 19 29.81 1010 10 16 0.00 0.00
3:35 pm 15:35 Cloudy 90 32 75 24 63 63 Calm 29.83 1010 10 16 0.00 0.00
3:55 pm 15:55 Cloudy with Strong Thunderstorms 79 26 72 22 79 79 WNW 22 35 29.89 1012 4 6 0.11 2.79
4:15 pm 16:15 Partly Cloudy with Nearby Thunderstorms 73 23 73 23 100 100 SW 3 6 29.87 1011 N/A 0.14 3.56
4:35 pm 16:35 Cloudy with Thunderstorms 73 23 73 23 100 100 Calm 29.85 1011 3 4 0.29 7.37
4:55 pm 16:55 Cloudy with Light Rain 73 23 73 23 100 100 Calm 29.83 1010 2 3 0.35 8.89
5:15 pm 17:15 Mostly Cloudy 75 24 73 23 94 94 NNW 5 7 29.84 1010 10 16 0.00 0.00
5:35 pm 17:35 Cloudy with Strong Thunderstorms 73 23 73 23 100 100 W 9 15 29.86 1011 1 2 0.30 7.62
5:55 pm 17:55 Mostly Cloudy with Light Rain 73 23 72 22 94 94 Calm 29.82 1010 10 16 0.44 11.18
6:15 pm 18:15 Partly Cloudy 77 25 73 23 89 89 NW 6 9 29.81 1010 10 16 0.00 0.00
6:35 pm 18:35 Partly Cloudy 79 26 73 23 84 84 WNW 3 6 29.82 1010 10 16 0.00 0.00
6:55 pm 18:55 Partly Cloudy 79 26 75 24 89 89 WSW 5 7 29.83 1010 10 16 0.00 0.00
7:15 pm 19:15 Partly Cloudy 79 26 73 23 84 84 WNW 3 6 29.83 1010 10 16 0.00 0.00
7:35 pm 19:35 Mostly Cloudy 77 25 73 23 89 89 WNW 5 7 29.83 1010 10 16 0.00 0.00
7:55 pm 19:55 Mostly Cloudy 77 25 75 24 94 94 SSW 3 6 29.82 1010 10 16 0.00 0.00
8:15 pm 20:15 Cloudy with Heavy Rain 77 25 75 24 94 94 SW 6 9 29.83 1010 3 5 0.03 0.76
8:35 pm 20:35 Cloudy 77 25 75 24 94 94 W 6 9 29.83 1010 10 16 0.04 1.02
8:55 pm 20:55 Cloudy with Drizzle 77 25 73 23 89 89 W 7 11 29.82 1010 10 16 0.04 1.02
9:15 pm 21:15 Mostly Cloudy 75 24 73 23 94 94 WNW 3 6 29.84 1010 10 16 0.00 0.00
9:35 pm 21:35 Clear 73 23 73 23 100 100 Calm 29.85 1011 10 16 0.00 0.00
9:55 pm 21:55 Clear 73 23 73 23 100 100 W 3 6 29.85 1011 10 16 0.00 0.00
10:15 pm 22:15 Clear 73 23 73 23 100 100 Calm 29.86 1011 10 16 0.00 0.00
10:35 pm 22:35 Clear 73 23 73 23 100 100 NNW 3 6 29.86 1011 10 16 0.00 0.00
10:55 pm 22:55 Clear 75 24 73 23 94 94 NNW 3 6 29.87 1011 10 16 0.00 0.00
11:15 pm 23:15 Mostly Cloudy 73 23 73 23 100 100 Calm 29.87 1011 10 16 0.00 0.00
11:35 pm 23:35 Partly Cloudy 75 24 72 22 89 89 Calm 29.87 1011 10 16 0.00 0.00
11:55 pm 23:55 Clear 73 23 73 23 100 100 Calm 29.87 1011 10 16 0.00 0.00

Powered by AerisWeather